カタログに戻る

INTELSAT NEW DAWN

運用中通信GEO
NORAD 37392·PAYLOAD· XX

打ち上げ Apr 22, 2011 から Guiana Space Centre

Loading…

TLE

最新Source: CelesTrak SupGP

元期: Sep 14, 2026, 00:00 UTC

1 37392C 11016A   26257.00000000 -.00000135  00000+0  00000+0 0  2570
2 37392   2.0289  81.4295 0003436  97.4720 142.4016  1.00274248    18

AllMySatでINTELSAT NEW DAWNをリアルタイム追跡

Download on the App Store